College Park, MD

6:50 PM EST on December 15, 2019 (GMT -0500)
College Park

Weather History for KCGS - October, 2019

Change the Weather History Date:

Wednesday, October 23, 2019

  Actual Average Record
Temperature  
Mean Temperature 54 °F -  
Max Temperature 65 °F 68 °F 84 °F (1979)
Min Temperature 41 °F 45 °F 28 °F (1952)
Degree Days  
Heating Degree Days 12    
Growing Degree Days 4 (Base 50)    
Moisture  
Dew Point 37 °F    
Average Humidity 53    
Maximum Humidity 94    
Minimum Humidity 24    
Precipitation  
Precipitation 0.00 in - - ()
Sea Level Pressure  
Sea Level Pressure 30.04 in    
Wind  
Wind Speed 2 mph (West)    
Max Wind Speed 13 mph    
Max Gust Speed 18 mph    
Visibility 8 miles    
Events      
Averages and records for this station are not official NWS values.
T = Trace of Precipitation, MM = Missing Value Source: NWS Daily Summary

Daily Weather History Graph

Daily Weather History Graph

Search for Another Location

Airport or City:

Astronomy

Oct. 23, 2019 Rise Set
Actual Time 7:25 AM EDT 6:18 PM EDT
Civil Twilight 6:57 AM EDT 6:45 PM EDT
Nautical Twilight 6:26 AM EDT 7:16 PM EDT
Astronomical Twilight 5:55 AM EDT 7:47 PM EDT
Moon 1:45 AM EDT (10/23) 4:04 PM EDT (10/23)
Length of Visible Light 11h 47m
Length of Day
10h 53m
Waning Crescent, 27% of the Moon is Illuminated
Oct 23
Waning Crescent
Oct 27
New
Nov 4
First Quarter
Nov 12
Full
Nov 19
Last Quarter

Hourly Weather History & Observations

Time (EDT) Temp. Dew Point Humidity Pressure Visibility Wind Dir Wind Speed Gust Speed Precip Events Conditions
12:03 AM 55.4 °F 53.6 °F 94% 29.86 in 10.0 mi Calm Calm - N/A   Clear
12:23 AM 53.6 °F 51.8 °F 94% 29.86 in 2.0 mi Calm Calm - N/A   Clear
12:43 AM 52.9 °F 51.1 °F 94% 29.86 in 0.5 mi Calm Calm - N/A   Unknown
1:03 AM - - N/A% 29.86 in 0.8 mi Calm Calm - N/A   Mostly Cloudy
1:23 AM - - N/A% 29.86 in 3.0 mi Calm Calm - N/A   Overcast
1:43 AM - - N/A% 29.86 in 2.5 mi Calm Calm - N/A   Overcast
2:03 AM - - N/A% 29.86 in 1.8 mi Calm Calm - N/A   Overcast
2:23 AM - - N/A% 29.87 in 1.0 mi Calm Calm - N/A   Overcast
2:43 AM - - N/A% 29.88 in 1.0 mi Calm Calm - N/A   Overcast
3:03 AM - - N/A% 29.89 in 7.0 mi Calm Calm - N/A   Scattered Clouds
3:23 AM - - N/A% 29.89 in 7.0 mi Calm Calm - N/A   Clear
3:43 AM - - N/A% 29.90 in 2.0 mi Calm Calm - N/A   Clear
4:23 AM - - N/A% 29.91 in 0.8 mi Calm Calm - N/A   Unknown
4:43 AM - - N/A% 29.92 in 1.0 mi Calm Calm - N/A   Unknown
5:03 AM - - N/A% 29.93 in 1.2 mi Calm Calm - N/A   Unknown
5:23 AM - - N/A% 29.94 in 5.0 mi Calm Calm - N/A   Clear
5:43 AM - - N/A% 29.95 in 10.0 mi Calm Calm - N/A   Clear
6:03 AM - - N/A% 29.96 in 10.0 mi Calm Calm - N/A   Clear
6:23 AM - - N/A% 29.97 in 7.0 mi Calm Calm - N/A   Clear
6:43 AM - - N/A% 29.98 in 7.0 mi Calm Calm - N/A   Clear
7:03 AM - - N/A% 29.99 in 7.0 mi Calm Calm - N/A   Clear
7:23 AM - - N/A% 29.99 in 4.0 mi Calm Calm - N/A   Clear
7:43 AM - - N/A% 30.00 in 5.0 mi Calm Calm - N/A   Clear
8:03 AM - - N/A% 30.01 in 0.8 mi Calm Calm - N/A   Unknown
8:23 AM - - N/A% 30.02 in 10.0 mi Calm Calm - N/A   Clear
8:43 AM - - N/A% 30.02 in 10.0 mi Calm Calm - N/A   Clear
9:03 AM - - N/A% 30.03 in 10.0 mi Calm Calm - N/A   Clear
9:23 AM - - N/A% 30.04 in 10.0 mi WSW 3.5 mph - N/A   Clear
9:43 AM 54.5 °F 52.7 °F 94% 30.05 in 10.0 mi West 3.5 mph - N/A   Clear
10:03 AM 57.4 °F 43.0 °F 59% 30.06 in 10.0 mi WNW 8.1 mph - N/A   Clear
10:23 AM 58.6 °F 42.8 °F 56% 30.06 in 10.0 mi WNW 5.8 mph - N/A   Clear
10:43 AM 59.5 °F 41.9 °F 52% 30.07 in 10.0 mi WNW 9.2 mph - N/A   Clear
11:03 AM 60.3 °F 39.9 °F 47% 30.07 in 10.0 mi West 9.2 mph - N/A   Clear
11:23 AM 60.8 °F 37.4 °F 42% 30.07 in 10.0 mi West 9.2 mph 16.1 mph N/A   Clear
11:43 AM 61.9 °F 37.2 °F 40% 30.07 in 10.0 mi West 10.4 mph - N/A   Clear
12:03 PM 62.1 °F 36.7 °F 39% 30.07 in 10.0 mi WSW 8.1 mph - N/A   Scattered Clouds
12:23 PM 62.8 °F 36.3 °F 37% 30.07 in 10.0 mi West 8.1 mph - N/A   Scattered Clouds
12:43 PM 63.0 °F 34.9 °F 35% 30.06 in 10.0 mi West 11.5 mph - N/A   Scattered Clouds
1:03 PM 62.8 °F 35.2 °F 36% 30.06 in 10.0 mi WNW 9.2 mph 16.1 mph N/A   Clear
1:43 PM 64.2 °F 33.1 °F 31% 30.06 in 10.0 mi WNW 12.7 mph - N/A   Clear
2:03 PM 64.6 °F 33.1 °F 31% 30.06 in 10.0 mi WNW 8.1 mph 16.1 mph N/A   Clear
2:23 PM 64.8 °F 32.7 °F 30% 30.06 in 10.0 mi West 8.1 mph - N/A   Clear
2:43 PM 64.9 °F 31.5 °F 29% 30.06 in 10.0 mi WNW 11.5 mph 17.3 mph N/A   Clear
3:03 PM 65.1 °F 32.0 °F 29% 30.06 in 10.0 mi WNW 6.9 mph 18.4 mph N/A   Clear
3:23 PM 65.7 °F 31.1 °F 27% 30.07 in 10.0 mi West 9.2 mph - N/A   Clear
3:43 PM 65.7 °F 31.6 °F 28% 30.07 in 10.0 mi WSW 6.9 mph 16.1 mph N/A   Clear
4:03 PM 65.7 °F 29.8 °F 26% 30.07 in 10.0 mi WNW 8.1 mph 17.3 mph N/A   Clear
4:23 PM 65.7 °F 28.0 °F 24% 30.07 in 10.0 mi WNW 8.1 mph - N/A   Clear
4:43 PM 65.7 °F 27.9 °F 24% 30.08 in 10.0 mi WNW 6.9 mph - N/A   Clear
5:03 PM 65.3 °F 27.1 °F 24% 30.08 in 10.0 mi West 6.9 mph - N/A   Clear
5:23 PM 64.9 °F 27.7 °F 25% 30.09 in 10.0 mi WNW 5.8 mph - N/A   Clear
5:43 PM 64.4 °F 28.4 °F 26% 30.10 in 10.0 mi Calm Calm - N/A   Clear
6:03 PM 63.0 °F 28.8 °F 28% 30.11 in 10.0 mi WNW 3.5 mph - N/A   Clear
6:23 PM 62.2 °F 28.9 °F 28% 30.12 in 10.0 mi Calm Calm - N/A   Clear
7:03 PM 55.0 °F 37.9 °F 53% 30.14 in 10.0 mi Calm Calm - N/A   Clear
7:23 PM 53.1 °F 38.1 °F 57% 30.15 in 10.0 mi Calm Calm - N/A   Clear
7:43 PM 50.9 °F 41.0 °F 69% 30.17 in 10.0 mi Calm Calm - N/A   Clear
8:03 PM 49.3 °F 40.1 °F 71% 30.17 in 10.0 mi Calm Calm - N/A   Clear
8:23 PM 48.2 °F 40.1 °F 74% 30.18 in 10.0 mi Calm Calm - N/A   Clear
8:43 PM 47.5 °F 39.6 °F 74% 30.19 in 10.0 mi Calm Calm - N/A   Clear
9:03 PM 46.4 °F 38.7 °F 74% 30.20 in 10.0 mi Calm Calm - N/A   Clear
9:23 PM 46.0 °F 39.6 °F 78% 30.20 in 10.0 mi Calm Calm - N/A   Clear
9:43 PM 45.5 °F 38.7 °F 77% 30.21 in 10.0 mi Calm Calm - N/A   Clear
10:03 PM 44.6 °F 38.7 °F 80% 30.21 in 10.0 mi Calm Calm - N/A   Clear
10:23 PM 43.9 °F 38.3 °F 81% 30.22 in 10.0 mi Calm Calm - N/A   Clear
10:43 PM 43.7 °F 37.8 °F 80% 30.22 in 10.0 mi Calm Calm - N/A   Clear
11:23 PM 42.3 °F 37.4 °F 83% 30.22 in 10.0 mi Calm Calm - N/A   Clear
11:43 PM 41.9 °F 37.0 °F 83% 30.22 in 10.0 mi Calm Calm - N/A   Clear